Lexington Weather

Lexington, Massachusetts, USA

67°F
9/23/2021 4:06am 
  • Lexington Conditions: Mostly cloudy
  • Temperature: 66.6°F / 19.2°CWarmer 0.4°F than last hour.
  • Dew Point: 65.3°FIncreased 0.5°Fsince last hour.
  • Relative Humidity: 96%Increased 1.0% since last hour.
  • Wind: Calm, 10-min avg: Calm, gust: None
  • Barometer: 30.04 in Steady
  • Visibility: 10 miles
  • Rain Today: 0.00 in
  •   

Regional Weather Roundup
for Boston / Norton, MA

        
000
ASUS41 KBOX 211604
RWRBOX

REGIONAL WEATHER ROUNDUP
NATIONAL WEATHER SERVICE BOSTON/NORTON MA
1200 PM EDT TUE SEP 21 2021

NOTE:  "FAIR" INDICATES FEW OR NO CLOUDS BELOW 12,000 FEET WITH NO 
SIGNIFICANT WEATHER AND/OR OBSTRUCTIONS TO VISIBILITY.

MAZALL-211700-
EASTERN MASSACHUSETTS
  
CITY           SKY/WX    TMP DP  RH WIND       PRES   REMARKS
BOSTON         MOSUNNY   70  62  76 E10       30.41F                  
BEVERLY        PTSUNNY   70  63  78 SE8       30.41S                  
LAWRENCE       PTSUNNY   69  58  67 VRB5      30.43F                  
BEDFORD        PTSUNNY   71  61  70 SE7       30.39F                  
BLUE HILL      NOT AVBL                                               
NORWOOD        CLOUDY    73  60  63 VRB5      30.40F                  
MARSHFIELD     SUNNY     72  63  73 E8        30.40F                  
PLYMOUTH       PTSUNNY   72  59  63 S5        30.40F                  
TAUNTON        PTSUNNY   72  60  66 E7        30.39F                  
NEW BEDFORD    SUNNY     74  59  59 SE8       30.39F                  
$$

MAZALL-211700-
CAPE COD AND THE ISLANDS
  
CITY           SKY/WX    TMP DP  RH WIND       PRES   REMARKS
FALMOUTH       MOSUNNY   73  61  64 E13       30.40F                  
HYANNIS        MOSUNNY   72  63  73 E9        30.39F                  
CHATHAM        PTSUNNY   70  62  76 SE9       30.42F                  
PROVINCETOWN   SUNNY     72  63  73 S12       30.42F                  
NANTUCKET      CLOUDY    73  63  70 E14       30.40S                  
MARTHAS VNYRD  SUNNY     75  60  59 SE8       30.39F                  
$$
 
MAZALL-211700-
CENTRAL AND WESTERN MASSACHUSETTS
  
CITY           SKY/WX    TMP DP  RH WIND       PRES   REMARKS
WORCESTER      CLOUDY    66  58  75 S12       30.42S                  
FITCHBURG      PTSUNNY   68  53  58 SE9       30.41F                  
ORANGE         SUNNY     68  48  48 VRB6      30.41F                  
SPRINGFIELD    MOSUNNY   70  49  46 CALM      30.39S                  
WESTFIELD      SUNNY     68  47  46 VRB7      30.39F                  
NORTH ADAMS    SUNNY     69  52  54 E12       30.36F                  
PITTSFIELD     SUNNY     66  51  58 SE9G17    30.36F                  
$$
 
RIZALL-211700-
RHODE ISLAND
  
CITY           SKY/WX    TMP DP  RH WIND       PRES   REMARKS
PROVIDENCE     MOSUNNY   73  61  65 SE10      30.40F                  
NEWPORT        MOSUNNY   71  60  68 SE7       30.39F                  
SMITHFIELD     PTSUNNY   71  61  70 VRB6      30.41S                  
WESTERLY       CLOUDY    69  62  78 E10       30.39S                  
$$
 
CTZALL-211700-
CONNECTICUT
  
CITY           SKY/WX    TMP DP  RH WIND       PRES   REMARKS
BRADLEY INTL   MOSUNNY   69  55  60 SW6       30.39F                  
HARTFORD       PTSUNNY   70  58  65 S5        30.39S                  
BRIDGEPORT     PTSUNNY   70  61  73 E9        30.38S                  
DANBURY        PTSUNNY   70  56  61 VRB6      30.39F                  
GROTON         MOSUNNY   70  63  78 E14       30.38F                  
NEW HAVEN      CLOUDY    72  63  73 E10       30.38F                  
CHESTER        PTSUNNY   70  63  78 CALM      30.39F                  
MERIDEN        PTSUNNY   70  57  63 CALM      30.38F                  
WILLIMANTIC    CLOUDY    68  60  75 CALM      30.40F                  
OXFORD         PTSUNNY   68  57  68 S9        30.40F                  
$$

MEZ002-015-021-024-NHZ003-005-008-011-012-014-VTZ005-008-211700-
NORTHERN NEW ENGLAND
  
CITY           SKY/WX    TMP DP  RH WIND       PRES   REMARKS
PORTLAND ME    MOSUNNY   66  57  72 S8        30.43F                  
BANGOR ME      MOSUNNY   68  56  65 S12       30.43F                  
CONCORD NH     SUNNY     68  53  58 VRB7      30.41F                  
MANCHESTER NH  PTSUNNY   68  53  58 S9        30.40S                  
NASHUA NH      PTSUNNY   68  60  75 VRB3      30.42F                  
PORTSMOUTH NH  PTSUNNY   69  57  65 S12       30.43S                  
JAFFREY NH     SUNNY     67  48  50 S8        30.42S                  
KEENE NH       SUNNY     68  47  46 S9        30.39F                  
BURLINGTON VT  PTSUNNY   72  54  53 S18       30.29F                  
MT. WASHINGTON MOSUNNY   52  10  19 S28         N/A                   
$$

NYZ052-076-211700-
EASTERN NEW YORK
  
CITY           SKY/WX    TMP DP  RH WIND       PRES   REMARKS
ALBANY         PTSUNNY   66  55  67 S10       30.34F                  
NEW YORK CITY  PTSUNNY   73  57  57 NE10      30.34F                  
$$
 
ANZALL-211700-
MARINE OBSERVATIONS
  
STATION/POSITION TIME  TEMP    WIND        PRES    VSBY  WAVE
                       AIR SEA DIR/SP/G                  HT/PER
                 (UTC) (F)     (DEG/KT/KT) (MB)    (MI)  (FT/S)
BOSTON BUOY      1540      65  100/  6/  8 1030.1F
BUZZARDS BAY     1500          110/ 11/ 12 1030.4F
NANTUCKET SOUND  1540   69 72  120/ 10/ 14 1029.3F
MASS BAY-STELLWA 1504   65     150/  6/  8 1029.9F  1 7/8  3/ 8
ISLE OF SHOALS   1500   62      50/  5/  5 1030.0F
S OF BLOCK IS    1526      70                N/A           3/11
$$

......................KEY.........................
  SKY/WX - SKY CONDITION/PRESENT WEATHER
  TMP    - TEMPERATURE IN FAHRENHEIT
  DWPT   - DEWPOINT IN FAHRENHEIT
  RH     - RELATIVE HUMIDITY IN PERCENT
  WIND   - DIRECTION AND SPEED IN MPH
  PRES   - MEAN SEA LEVEL PRESSURE IN INCHES OF HG
  WCI    - WIND CHILL INDEX
  VSB    - VISIBILITY IN MILES
  HX     - HEAT INDEX
  TC     - TEMPERATURE IN CELSIUS
  VRB    - VARIABLE WIND DIRECTION
  N/A    - NOT AVAILABLE
  
      

Other recent Regional Weather Roundups

Thu Sep 23, 3:04am

Thu Sep 23, 2:04am

Thu Sep 23, 1:04am

Thu Sep 23, 12:04am

Wed Sep 22, 11:04pm

Wed Sep 22, 10:04pm

Wed Sep 22, 9:04pm

Wed Sep 22, 8:04pm

Wed Sep 22, 7:04pm

Wed Sep 22, 6:04pm

Wed Sep 22, 5:04pm

Wed Sep 22, 4:04pm

Wed Sep 22, 3:04pm

Wed Sep 22, 2:04pm

Wed Sep 22, 1:04pm

Wed Sep 22, 12:05pm

Wed Sep 22, 11:04am

Wed Sep 22, 10:04am

Wed Sep 22, 9:04am

Wed Sep 22, 8:04am

Wed Sep 22, 7:04am

Wed Sep 22, 6:04am

Wed Sep 22, 5:04am

Wed Sep 22, 4:04am

Wed Sep 22, 3:04am

Wed Sep 22, 2:04am

Wed Sep 22, 1:04am

Wed Sep 22, 12:04am

Tue Sep 21, 11:04pm

Tue Sep 21, 10:04pm

Tue Sep 21, 9:04pm

Tue Sep 21, 8:04pm

Tue Sep 21, 7:04pm

Tue Sep 21, 6:04pm

Tue Sep 21, 5:04pm

Tue Sep 21, 4:04pm

Tue Sep 21, 3:04pm

Tue Sep 21, 2:04pm

Tue Sep 21, 1:04pm

Tue Sep 21, 11:04am

Tue Sep 21, 10:04am

Tue Sep 21, 9:04am

Tue Sep 21, 8:04am

Tue Sep 21, 7:04am

Tue Sep 21, 6:04am

Tue Sep 21, 5:04am

Tue Sep 21, 4:04am

Tue Sep 21, 3:04am

Tue Sep 21, 2:04am

Tue Sep 21, 1:04am

Tue Sep 21, 12:04am

Mon Sep 20, 11:04pm

Mon Sep 20, 10:04pm

Mon Sep 20, 9:04pm

Mon Sep 20, 8:04pm

Mon Sep 20, 7:04pm

Mon Sep 20, 6:04pm

Mon Sep 20, 5:04pm

Mon Sep 20, 4:04pm

Mon Sep 20, 3:04pm

Mon Sep 20, 2:04pm

Mon Sep 20, 1:04pm

Mon Sep 20, 12:04pm

Mon Sep 20, 11:04am

Mon Sep 20, 10:04am

Mon Sep 20, 9:04am

Mon Sep 20, 7:04am

Mon Sep 20, 6:04am

Mon Sep 20, 5:04am

Mon Sep 20, 4:04am

Mon Sep 20, 3:04am

Mon Sep 20, 2:04am

Mon Sep 20, 1:04am

Mon Sep 20, 12:04am

Sun Sep 19, 11:04pm

Sun Sep 19, 10:04pm

Sun Sep 19, 9:04pm

Sun Sep 19, 8:04pm

Sun Sep 19, 7:04pm

Sun Sep 19, 6:04pm

Sun Sep 19, 5:04pm

Sun Sep 19, 4:04pm

Sun Sep 19, 3:04pm

Sun Sep 19, 2:05pm

Sun Sep 19, 1:04pm

Sun Sep 19, 12:04pm

Sun Sep 19, 11:04am

Sun Sep 19, 10:05am

Sun Sep 19, 9:04am

Sun Sep 19, 8:04am

Sun Sep 19, 7:04am

Sun Sep 19, 6:04am

Sun Sep 19, 5:04am

Sun Sep 19, 4:04am

Sun Sep 19, 3:04am

Sun Sep 19, 2:04am

Sun Sep 19, 1:04am

Sun Sep 19, 12:04am

Sat Sep 18, 11:05pm

Sat Sep 18, 10:04pm

Sat Sep 18, 9:04pm

Sat Sep 18, 8:04pm

Sat Sep 18, 7:04pm

Sat Sep 18, 6:04pm

Sat Sep 18, 5:04pm

Sat Sep 18, 4:04pm

Sat Sep 18, 3:04pm

Sat Sep 18, 2:04pm

Sat Sep 18, 1:04pm

Sat Sep 18, 12:04pm

Sat Sep 18, 11:04am

Sat Sep 18, 10:04am

Sat Sep 18, 9:04am

Sat Sep 18, 8:04am

Sat Sep 18, 7:04am

Sat Sep 18, 6:04am

Sat Sep 18, 5:04am

Sat Sep 18, 4:04am

Sat Sep 18, 3:04am

Sat Sep 18, 2:04am

Sat Sep 18, 1:04am

Sat Sep 18, 12:04am

Fri Sep 17, 11:04pm

Fri Sep 17, 10:04pm

Fri Sep 17, 9:04pm

Fri Sep 17, 8:04pm

Fri Sep 17, 7:04pm

Fri Sep 17, 6:04pm

Fri Sep 17, 5:04pm

Fri Sep 17, 4:04pm

Fri Sep 17, 3:04pm

Fri Sep 17, 2:04pm

Fri Sep 17, 1:04pm

Fri Sep 17, 12:05pm

Fri Sep 17, 11:04am

Fri Sep 17, 10:04am

Fri Sep 17, 9:04am

Fri Sep 17, 8:04am

Fri Sep 17, 7:04am

Fri Sep 17, 6:04am

Fri Sep 17, 5:04am

Fri Sep 17, 4:04am

Fri Sep 17, 3:04am

Fri Sep 17, 2:04am

Fri Sep 17, 1:04am

Fri Sep 17, 12:04am

Thu Sep 16, 11:04pm

Thu Sep 16, 10:04pm

Thu Sep 16, 9:04pm

Thu Sep 16, 8:04pm

Thu Sep 16, 7:04pm

Thu Sep 16, 6:04pm

Thu Sep 16, 5:04pm

Thu Sep 16, 4:04pm

Thu Sep 16, 3:04pm

Thu Sep 16, 2:04pm

Thu Sep 16, 1:05pm

Thu Sep 16, 12:04pm

Thu Sep 16, 11:05am

Thu Sep 16, 10:05am

Thu Sep 16, 9:04am

Thu Sep 16, 8:04am

Thu Sep 16, 7:04am

Thu Sep 16, 6:04am

Thu Sep 16, 5:04am

Thu Sep 16, 4:04am

Meta data:

ID: ee4ea822-155a-4761-8cbb-ed8f4a8213d7
Link: https://api.weather.gov/products/ee4ea822-155a-4761-8cbb-ed8f4a8213d7